KUIPER-00215

Last updated on Sun Mar 15 2026 00:02:06 GMT+0000 (Coordinated Universal Time)

1 67779U 26030R 26073.60126596 .00036690 00000+0 10775-2 0 9995 2 67779 51.8846 195.7432 0011799 79.3157 280.9157 15.34723022 5848
UTC large
Height (km)
Speed (km/s)
/
Latitude / Longitude
Inclination (degrees)
Orbital Period (minutes)
Azimuth
Elevation
Range (km)
Doppler Factor

Next 0 passes for location: London (51.5072 / 0.1276)

Sorry there are no passes over London.